owner,sensor,date,latitude,longitude,air_pressure(mBar),qcFlag 
COAPS,ioos:station:COAPS:N7:1,2016-07-01T00:00:00Z,29.6619,-84.3731,1015.289,1111122 
COAPS,ioos:station:COAPS:N7:1,2016-07-01T00:01:00Z,29.6619,-84.3731,1015.307,1111122 
COAPS,ioos:station:COAPS:N7:1,2016-07-01T00:02:00Z,29.6619,-84.3731,1015.35,1111122 
COAPS,ioos:station:COAPS:N7:1,2016-07-01T00:03:00Z,29.6619,-84.3731,1015.425,1111122 
COAPS,ioos:station:COAPS:N7:1,2016-07-01T00:04:00Z,29.6619,-84.3731,1015.492,1111122 
COAPS,ioos:station:COAPS:N7:1,2016-07-01T00:05:00Z,29.6619,-84.3731,1015.495,1111122 
COAPS,ioos:station:COAPS:N7:1,2016-07-01T00:06:00Z,29.6619,-84.3731,1015.534,1111122 
COAPS,ioos:station:COAPS:N7:1,2016-07-01T00:07:00Z,29.6619,-84.3731,1015.538,1111122 
COAPS,ioos:station:COAPS:N7:1,2016-07-01T00:08:00Z,29.6619,-84.3731,1015.554,1111122 
COAPS,ioos:station:COAPS:N7:1,2016-07-01T00:09:00Z,29.6619,-84.3731,1015.544,1111122 
COAPS,ioos:station:COAPS:N7:1,2016-07-01T00:10:00Z,29.6619,-84.3731,1015.565,1111122 
COAPS,ioos:station:COAPS:N7:1,2016-07-01T00:11:00Z,29.6619,-84.3731,1015.573,1111122 
COAPS,ioos:station:COAPS:N7:1,2016-07-01T00:12:00Z,29.6619,-84.3731,1015.563,1111122 
COAPS,ioos:station:COAPS:N7:1,2016-07-01T00:13:00Z,29.6619,-84.3731,1015.574,1111122 
COAPS,ioos:station:COAPS:N7:1,2016-07-01T00:14:00Z,29.6619,-84.3731,1015.596,1111122 
COAPS,ioos:station:COAPS:N7:1,2016-07-01T00:15:00Z,29.6619,-84.3731,1015.627,1111122 
COAPS,ioos:station:COAPS:N7:1,2016-07-01T00:16:00Z,29.6619,-84.3731,1015.649,1111122 
COAPS,ioos:station:COAPS:N7:1,2016-07-01T00:17:00Z,29.6619,-84.3731,1015.638,1111122 
COAPS,ioos:station:COAPS:N7:1,2016-07-01T00:18:00Z,29.6619,-84.3731,1015.633,1111122 
COAPS,ioos:station:COAPS:N7:1,2016-07-01T00:19:00Z,29.6619,-84.3731,1015.614,1111122 
COAPS,ioos:station:COAPS:N7:1,2016-07-01T00:20:00Z,29.6619,-84.3731,1015.592,1111122 
COAPS,ioos:station:COAPS:N7:1,2016-07-01T00:21:00Z,29.6619,-84.3731,1015.606,1111122 
COAPS,ioos:station:COAPS:N7:1,2016-07-01T00:22:00Z,29.6619,-84.3731,1015.603,1111122 
COAPS,ioos:station:COAPS:N7:1,2016-07-01T00:23:00Z,29.6619,-84.3731,1015.615,1111122 
COAPS,ioos:station:COAPS:N7:1,2016-07-01T00:24:00Z,29.6619,-84.3731,1015.609,1111122 
COAPS,ioos:station:COAPS:N7:1,2016-07-01T00:25:00Z,29.6619,-84.3731,1015.626,1111122 
COAPS,ioos:station:COAPS:N7:1,2016-07-01T00:26:00Z,29.6619,-84.3731,1015.645,1111122 
COAPS,ioos:station:COAPS:N7:1,2016-07-01T00:27:00Z,29.6619,-84.3731,1015.659,1111122 
COAPS,ioos:station:COAPS:N7:1,2016-07-01T00:28:00Z,29.6619,-84.3731,1015.673,1111122 
COAPS,ioos:station:COAPS:N7:1,2016-07-01T00:29:00Z,29.6619,-84.3731,1015.7,1111122 
COAPS,ioos:station:COAPS:N7:1,2016-07-01T00:30:00Z,29.6619,-84.3731,1015.711,1111122 
COAPS,ioos:station:COAPS:N7:1,2016-07-01T00:31:00Z,29.6619,-84.3731,1015.769,1111122 
COAPS,ioos:station:COAPS:N7:1,2016-07-01T00:32:00Z,29.6619,-84.3731,1015.788,1111122 
COAPS,ioos:station:COAPS:N7:1,2016-07-01T00:33:00Z,29.6619,-84.3731,1015.835,1111122 
COAPS,ioos:station:COAPS:N7:1,2016-07-01T00:34:00Z,29.6619,-84.3731,1015.868,1111122 
COAPS,ioos:station:COAPS:N7:1,2016-07-01T00:35:00Z,29.6619,-84.3731,1015.876,1111122 
COAPS,ioos:station:COAPS:N7:1,2016-07-01T00:36:00Z,29.6619,-84.3731,1015.909,1111122 
COAPS,ioos:station:COAPS:N7:1,2016-07-01T00:37:00Z,29.6619,-84.3731,1015.91,1111122 
COAPS,ioos:station:COAPS:N7:1,2016-07-01T00:38:00Z,29.6619,-84.3731,1015.958,1111122 
COAPS,ioos:station:COAPS:N7:1,2016-07-01T00:39:00Z,29.6619,-84.3731,1015.961,1111122 
COAPS,ioos:station:COAPS:N7:1,2016-07-01T00:40:00Z,29.6619,-84.3731,1016.003,1111122 
COAPS,ioos:station:COAPS:N7:1,2016-07-01T00:41:00Z,29.6619,-84.3731,1016.009,1111122 
COAPS,ioos:station:COAPS:N7:1,2016-07-01T00:42:00Z,29.6619,-84.3731,1016.036,1111122 
COAPS,ioos:station:COAPS:N7:1,2016-07-01T00:43:00Z,29.6619,-84.3731,1016.032,1111122 
COAPS,ioos:station:COAPS:N7:1,2016-07-01T00:44:00Z,29.6619,-84.3731,1016.035,1111122 
COAPS,ioos:station:COAPS:N7:1,2016-07-01T00:45:00Z,29.6619,-84.3731,1016.041,1111122 
COAPS,ioos:station:COAPS:N7:1,2016-07-01T00:46:00Z,29.6619,-84.3731,1016.052,1111122 
COAPS,ioos:station:COAPS:N7:1,2016-07-01T00:47:00Z,29.6619,-84.3731,1016.07,1111122 
COAPS,ioos:station:COAPS:N7:1,2016-07-01T00:48:00Z,29.6619,-84.3731,1016.094,1111122 
COAPS,ioos:station:COAPS:N7:1,2016-07-01T00:49:00Z,29.6619,-84.3731,1016.062,1111122 
COAPS,ioos:station:COAPS:N7:1,2016-07-01T00:50:00Z,29.6619,-84.3731,1016.065,1111122 
COAPS,ioos:station:COAPS:N7:1,2016-07-01T00:51:00Z,29.6619,-84.3731,1016.07,1111122 
COAPS,ioos:station:COAPS:N7:1,2016-07-01T00:52:00Z,29.6619,-84.3731,1016.065,1111122 
COAPS,ioos:station:COAPS:N7:1,2016-07-01T00:53:00Z,29.6619,-84.3731,1016.057,1111122 
COAPS,ioos:station:COAPS:N7:1,2016-07-01T00:54:00Z,29.6619,-84.3731,1016.06,1111122 
COAPS,ioos:station:COAPS:N7:1,2016-07-01T00:55:00Z,29.6619,-84.3731,1016.063,1111122 
COAPS,ioos:station:COAPS:N7:1,2016-07-01T00:56:00Z,29.6619,-84.3731,1016.066,1111122 
COAPS,ioos:station:COAPS:N7:1,2016-07-01T00:57:00Z,29.6619,-84.3731,1016.041,1111122 
COAPS,ioos:station:COAPS:N7:1,2016-07-01T00:58:00Z,29.6619,-84.3731,1016.02,1111122 
COAPS,ioos:station:COAPS:N7:1,2016-07-01T00:59:00Z,29.6619,-84.3731,1016.042,1111122 
COAPS,ioos:station:COAPS:N7:1,2016-07-01T01:00:00Z,29.6619,-84.3731,1016.073,1111122 
COAPS,ioos:station:COAPS:N7:1,2016-07-01T01:01:00Z,29.6619,-84.3731,1016.106,1111122 
COAPS,ioos:station:COAPS:N7:1,2016-07-01T01:02:00Z,29.6619,-84.3731,1016.112,1111122 
COAPS,ioos:station:COAPS:N7:1,2016-07-01T01:03:00Z,29.6619,-84.3731,1016.156,1111122 
COAPS,ioos:station:COAPS:N7:1,2016-07-01T01:04:00Z,29.6619,-84.3731,1016.156,1111122 
COAPS,ioos:station:COAPS:N7:1,2016-07-01T01:05:00Z,29.6619,-84.3731,1016.2,1111122 
COAPS,ioos:station:COAPS:N7:1,2016-07-01T01:06:00Z,29.6619,-84.3731,1016.212,1111122 
COAPS,ioos:station:COAPS:N7:1,2016-07-01T01:07:00Z,29.6619,-84.3731,1016.256,1111122 
COAPS,ioos:station:COAPS:N7:1,2016-07-01T01:08:00Z,29.6619,-84.3731,1016.248,1111122 
COAPS,ioos:station:COAPS:N7:1,2016-07-01T01:09:00Z,29.6619,-84.3731,1016.294,1111122 
COAPS,ioos:station:COAPS:N7:1,2016-07-01T01:10:00Z,29.6619,-84.3731,1016.295,1111122 
COAPS,ioos:station:COAPS:N7:1,2016-07-01T01:11:00Z,29.6619,-84.3731,1016.33,1111122 
COAPS,ioos:station:COAPS:N7:1,2016-07-01T01:12:00Z,29.6619,-84.3731,1016.319,1111122 
COAPS,ioos:station:COAPS:N7:1,2016-07-01T01:13:00Z,29.6619,-84.3731,1016.328,1111122 
COAPS,ioos:station:COAPS:N7:1,2016-07-01T01:14:00Z,29.6619,-84.3731,1016.358,1111122 
COAPS,ioos:station:COAPS:N7:1,2016-07-01T01:15:00Z,29.6619,-84.3731,1016.355,1111122 
COAPS,ioos:station:COAPS:N7:1,2016-07-01T01:16:00Z,29.6619,-84.3731,1016.347,1111122 
COAPS,ioos:station:COAPS:N7:1,2016-07-01T01:17:00Z,29.6619,-84.3731,1016.355,1111122 
COAPS,ioos:station:COAPS:N7:1,2016-07-01T01:18:00Z,29.6619,-84.3731,1016.377,1111122 
COAPS,ioos:station:COAPS:N7:1,2016-07-01T01:19:00Z,29.6619,-84.3731,1016.38,1111122 
COAPS,ioos:station:COAPS:N7:1,2016-07-01T01:20:00Z,29.6619,-84.3731,1016.363,1111122 
COAPS,ioos:station:COAPS:N7:1,2016-07-01T01:21:00Z,29.6619,-84.3731,1016.381,1111122 
COAPS,ioos:station:COAPS:N7:1,2016-07-01T01:22:00Z,29.6619,-84.3731,1016.425,1111122 
COAPS,ioos:station:COAPS:N7:1,2016-07-01T01:23:00Z,29.6619,-84.3731,1016.458,1111122 
COAPS,ioos:station:COAPS:N7:1,2016-07-01T01:24:00Z,29.6619,-84.3731,1016.486,1111122 
COAPS,ioos:station:COAPS:N7:1,2016-07-01T01:25:00Z,29.6619,-84.3731,1016.53,1111122 
COAPS,ioos:station:COAPS:N7:1,2016-07-01T01:26:00Z,29.6619,-84.3731,1016.545,1111122 
COAPS,ioos:station:COAPS:N7:1,2016-07-01T01:27:00Z,29.6619,-84.3731,1016.565,1111122 
COAPS,ioos:station:COAPS:N7:1,2016-07-01T01:28:00Z,29.6619,-84.3731,1016.554,1111122 
COAPS,ioos:station:COAPS:N7:1,2016-07-01T01:29:00Z,29.6619,-84.3731,1016.579,1111122 
COAPS,ioos:station:COAPS:N7:1,2016-07-01T01:30:00Z,29.6619,-84.3731,1016.533,1111122 
COAPS,ioos:station:COAPS:N7:1,2016-07-01T01:31:00Z,29.6619,-84.3731,1016.56,1111122 
COAPS,ioos:station:COAPS:N7:1,2016-07-01T01:32:00Z,29.6619,-84.3731,1016.525,1111122 
COAPS,ioos:station:COAPS:N7:1,2016-07-01T01:33:00Z,29.6619,-84.3731,1016.514,1111122 
COAPS,ioos:station:COAPS:N7:1,2016-07-01T01:34:00Z,29.6619,-84.3731,1016.438,1111122 
COAPS,ioos:station:COAPS:N7:1,2016-07-01T01:35:00Z,29.6619,-84.3731,1016.466,1111122 
COAPS,ioos:station:COAPS:N7:1,2016-07-01T01:36:00Z,29.6619,-84.3731,1016.447,1111122 
COAPS,ioos:station:COAPS:N7:1,2016-07-01T01:37:00Z,29.6619,-84.3731,1016.485,1111122 
COAPS,ioos:station:COAPS:N7:1,2016-07-01T01:38:00Z,29.6619,-84.3731,1016.491,1111122 
COAPS,ioos:station:COAPS:N7:1,2016-07-01T01:39:00Z,29.6619,-84.3731,1016.521,1111122 
COAPS,ioos:station:COAPS:N7:1,2016-07-01T01:40:00Z,29.6619,-84.3731,1016.513,1111122 
COAPS,ioos:station:COAPS:N7:1,2016-07-01T01:41:00Z,29.6619,-84.3731,1016.53,1111122 
COAPS,ioos:station:COAPS:N7:1,2016-07-01T01:42:00Z,29.6619,-84.3731,1016.545,1111122 
COAPS,ioos:station:COAPS:N7:1,2016-07-01T01:43:00Z,29.6619,-84.3731,1016.56,1111122 
COAPS,ioos:station:COAPS:N7:1,2016-07-01T01:44:00Z,29.6619,-84.3731,1016.559,1111122 
COAPS,ioos:station:COAPS:N7:1,2016-07-01T01:45:00Z,29.6619,-84.3731,1016.562,1111122 
COAPS,ioos:station:COAPS:N7:1,2016-07-01T01:46:00Z,29.6619,-84.3731,1016.554,1111122 
COAPS,ioos:station:COAPS:N7:1,2016-07-01T01:47:00Z,29.6619,-84.3731,1016.556,1111122 
COAPS,ioos:station:COAPS:N7:1,2016-07-01T01:48:00Z,29.6619,-84.3731,1016.543,1111122 
COAPS,ioos:station:COAPS:N7:1,2016-07-01T01:49:00Z,29.6619,-84.3731,1016.54,1111122 
COAPS,ioos:station:COAPS:N7:1,2016-07-01T01:50:00Z,29.6619,-84.3731,1016.51,1111122 
COAPS,ioos:station:COAPS:N7:1,2016-07-01T01:51:00Z,29.6619,-84.3731,1016.515,1111122 
COAPS,ioos:station:COAPS:N7:1,2016-07-01T01:52:00Z,29.6619,-84.3731,1016.49,1111122 
COAPS,ioos:station:COAPS:N7:1,2016-07-01T01:53:00Z,29.6619,-84.3731,1016.488,1111122 
COAPS,ioos:station:COAPS:N7:1,2016-07-01T01:54:00Z,29.6619,-84.3731,1016.493,1111122 
COAPS,ioos:station:COAPS:N7:1,2016-07-01T01:55:00Z,29.6619,-84.3731,1016.493,1111122 
COAPS,ioos:station:COAPS:N7:1,2016-07-01T01:56:00Z,29.6619,-84.3731,1016.49,1111122 
COAPS,ioos:station:COAPS:N7:1,2016-07-01T01:57:00Z,29.6619,-84.3731,1016.466,1111122 
COAPS,ioos:station:COAPS:N7:1,2016-07-01T01:58:00Z,29.6619,-84.3731,1016.435,1111122 
COAPS,ioos:station:COAPS:N7:1,2016-07-01T01:59:00Z,29.6619,-84.3731,1016.474,1111122 
COAPS,ioos:station:COAPS:N7:1,2016-07-01T02:00:00Z,29.6619,-84.3731,1016.466,1111122 
COAPS,ioos:station:COAPS:N7:1,2016-07-01T02:01:00Z,29.6619,-84.3731,1016.499,1111122 
COAPS,ioos:station:COAPS:N7:1,2016-07-01T02:02:00Z,29.6619,-84.3731,1016.482,1111122 
COAPS,ioos:station:COAPS:N7:1,2016-07-01T02:03:00Z,29.6619,-84.3731,1016.499,1111122 
COAPS,ioos:station:COAPS:N7:1,2016-07-01T02:04:00Z,29.6619,-84.3731,1016.473,1111122 
COAPS,ioos:station:COAPS:N7:1,2016-07-01T02:05:00Z,29.6619,-84.3731,1016.521,1111122 
COAPS,ioos:station:COAPS:N7:1,2016-07-01T02:06:00Z,29.6619,-84.3731,1016.55,1111122 
COAPS,ioos:station:COAPS:N7:1,2016-07-01T02:07:00Z,29.6619,-84.3731,1016.532,1111122 
COAPS,ioos:station:COAPS:N7:1,2016-07-01T02:08:00Z,29.6619,-84.3731,1016.554,1111122 
COAPS,ioos:station:COAPS:N7:1,2016-07-01T02:09:00Z,29.6619,-84.3731,1016.538,1111122 
COAPS,ioos:station:COAPS:N7:1,2016-07-01T02:10:00Z,29.6619,-84.3731,1016.531,1111122 
COAPS,ioos:station:COAPS:N7:1,2016-07-01T02:11:00Z,29.6619,-84.3731,1016.509,1111122 
COAPS,ioos:station:COAPS:N7:1,2016-07-01T02:12:00Z,29.6619,-84.3731,1016.469,1111122 
COAPS,ioos:station:COAPS:N7:1,2016-07-01T02:13:00Z,29.6619,-84.3731,1016.439,1111122 
COAPS,ioos:station:COAPS:N7:1,2016-07-01T02:14:00Z,29.6619,-84.3731,1016.431,1111122 
COAPS,ioos:station:COAPS:N7:1,2016-07-01T02:15:00Z,29.6619,-84.3731,1016.428,1111122 
COAPS,ioos:station:COAPS:N7:1,2016-07-01T02:16:00Z,29.6619,-84.3731,1016.371,1111122 
COAPS,ioos:station:COAPS:N7:1,2016-07-01T02:17:00Z,29.6619,-84.3731,1016.395,1111122 
COAPS,ioos:station:COAPS:N7:1,2016-07-01T02:18:00Z,29.6619,-84.3731,1016.401,1111122 
COAPS,ioos:station:COAPS:N7:1,2016-07-01T02:19:00Z,29.6619,-84.3731,1016.4,1111122 
COAPS,ioos:station:COAPS:N7:1,2016-07-01T02:20:00Z,29.6619,-84.3731,1016.436,1111122 
COAPS,ioos:station:COAPS:N7:1,2016-07-01T02:21:00Z,29.6619,-84.3731,1016.447,1111122 
COAPS,ioos:station:COAPS:N7:1,2016-07-01T02:22:00Z,29.6619,-84.3731,1016.444,1111122 
COAPS,ioos:station:COAPS:N7:1,2016-07-01T02:23:00Z,29.6619,-84.3731,1016.453,1111122 
COAPS,ioos:station:COAPS:N7:1,2016-07-01T02:24:00Z,29.6619,-84.3731,1016.398,1111122 
COAPS,ioos:station:COAPS:N7:1,2016-07-01T02:25:00Z,29.6619,-84.3731,1016.4,1111122 
COAPS,ioos:station:COAPS:N7:1,2016-07-01T02:26:00Z,29.6619,-84.3731,1016.399,1111122 
COAPS,ioos:station:COAPS:N7:1,2016-07-01T02:27:00Z,29.6619,-84.3731,1016.422,1111122 
COAPS,ioos:station:COAPS:N7:1,2016-07-01T02:28:00Z,29.6619,-84.3731,1016.389,1111122 
COAPS,ioos:station:COAPS:N7:1,2016-07-01T02:29:00Z,29.6619,-84.3731,1016.417,1111122 
COAPS,ioos:station:COAPS:N7:1,2016-07-01T02:30:00Z,29.6619,-84.3731,1016.42,1111122 
COAPS,ioos:station:COAPS:N7:1,2016-07-01T02:31:00Z,29.6619,-84.3731,1016.427,1111122 
COAPS,ioos:station:COAPS:N7:1,2016-07-01T02:32:00Z,29.6619,-84.3731,1016.421,1111122 
COAPS,ioos:station:COAPS:N7:1,2016-07-01T02:33:00Z,29.6619,-84.3731,1016.436,1111122 
COAPS,ioos:station:COAPS:N7:1,2016-07-01T02:34:00Z,29.6619,-84.3731,1016.463,1111122 
COAPS,ioos:station:COAPS:N7:1,2016-07-01T02:35:00Z,29.6619,-84.3731,1016.477,1111122 
COAPS,ioos:station:COAPS:N7:1,2016-07-01T02:36:00Z,29.6619,-84.3731,1016.494,1111122 
COAPS,ioos:station:COAPS:N7:1,2016-07-01T02:37:00Z,29.6619,-84.3731,1016.503,1111122 
COAPS,ioos:station:COAPS:N7:1,2016-07-01T02:38:00Z,29.6619,-84.3731,1016.514,1111122 
COAPS,ioos:station:COAPS:N7:1,2016-07-01T02:39:00Z,29.6619,-84.3731,1016.522,1111122 
COAPS,ioos:station:COAPS:N7:1,2016-07-01T02:40:00Z,29.6619,-84.3731,1016.55,1111122 
COAPS,ioos:station:COAPS:N7:1,2016-07-01T02:41:00Z,29.6619,-84.3731,1016.509,1111122 
COAPS,ioos:station:COAPS:N7:1,2016-07-01T02:42:00Z,29.6619,-84.3731,1016.514,1111122 
COAPS,ioos:station:COAPS:N7:1,2016-07-01T02:43:00Z,29.6619,-84.3731,1016.506,1111122 
COAPS,ioos:station:COAPS:N7:1,2016-07-01T02:44:00Z,29.6619,-84.3731,1016.503,1111122 
COAPS,ioos:station:COAPS:N7:1,2016-07-01T02:45:00Z,29.6619,-84.3731,1016.498,1111122 
COAPS,ioos:station:COAPS:N7:1,2016-07-01T02:46:00Z,29.6619,-84.3731,1016.498,1111122 
COAPS,ioos:station:COAPS:N7:1,2016-07-01T02:47:00Z,29.6619,-84.3731,1016.5,1111122 
COAPS,ioos:station:COAPS:N7:1,2016-07-01T02:48:00Z,29.6619,-84.3731,1016.486,1111122 
COAPS,ioos:station:COAPS:N7:1,2016-07-01T02:49:00Z,29.6619,-84.3731,1016.472,1111122 
COAPS,ioos:station:COAPS:N7:1,2016-07-01T02:50:00Z,29.6619,-84.3731,1016.467,1111122 
COAPS,ioos:station:COAPS:N7:1,2016-07-01T02:51:00Z,29.6619,-84.3731,1016.454,1111122 
COAPS,ioos:station:COAPS:N7:1,2016-07-01T02:52:00Z,29.6619,-84.3731,1016.429,1111122 
COAPS,ioos:station:COAPS:N7:1,2016-07-01T02:53:00Z,29.6619,-84.3731,1016.437,1111122 
COAPS,ioos:station:COAPS:N7:1,2016-07-01T02:54:00Z,29.6619,-84.3731,1016.402,1111122 
COAPS,ioos:station:COAPS:N7:1,2016-07-01T02:55:00Z,29.6619,-84.3731,1016.429,1111122 
COAPS,ioos:station:COAPS:N7:1,2016-07-01T02:56:00Z,29.6619,-84.3731,1016.396,1111122 
COAPS,ioos:station:COAPS:N7:1,2016-07-01T02:57:00Z,29.6619,-84.3731,1016.415,1111122 
COAPS,ioos:station:COAPS:N7:1,2016-07-01T02:58:00Z,29.6619,-84.3731,1016.405,1111122 
COAPS,ioos:station:COAPS:N7:1,2016-07-01T02:59:00Z,29.6619,-84.3731,1016.416,1111122 
COAPS,ioos:station:COAPS:N7:1,2016-07-01T03:00:00Z,29.6619,-84.3731,1016.374,1111122 
COAPS,ioos:station:COAPS:N7:1,2016-07-01T03:01:00Z,29.6619,-84.3731,1016.385,1111122 
COAPS,ioos:station:COAPS:N7:1,2016-07-01T03:02:00Z,29.6619,-84.3731,1016.388,1111122 
COAPS,ioos:station:COAPS:N7:1,2016-07-01T03:03:00Z,29.6619,-84.3731,1016.394,1111122 
COAPS,ioos:station:COAPS:N7:1,2016-07-01T03:04:00Z,29.6619,-84.3731,1016.38,1111122 
COAPS,ioos:station:COAPS:N7:1,2016-07-01T03:05:00Z,29.6619,-84.3731,1016.379,1111122 
COAPS,ioos:station:COAPS:N7:1,2016-07-01T03:06:00Z,29.6619,-84.3731,1016.343,1111122 
COAPS,ioos:station:COAPS:N7:1,2016-07-01T03:07:00Z,29.6619,-84.3731,1016.351,1111122 
COAPS,ioos:station:COAPS:N7:1,2016-07-01T03:08:00Z,29.6619,-84.3731,1016.326,1111122 
COAPS,ioos:station:COAPS:N7:1,2016-07-01T03:09:00Z,29.6619,-84.3731,1016.318,1111122 
COAPS,ioos:station:COAPS:N7:1,2016-07-01T03:10:00Z,29.6619,-84.3731,1016.327,1111122 
COAPS,ioos:station:COAPS:N7:1,2016-07-01T03:11:00Z,29.6619,-84.3731,1016.348,1111122 
COAPS,ioos:station:COAPS:N7:1,2016-07-01T03:12:00Z,29.6619,-84.3731,1016.336,1111122 
COAPS,ioos:station:COAPS:N7:1,2016-07-01T03:13:00Z,29.6619,-84.3731,1016.36,1111122 
COAPS,ioos:station:COAPS:N7:1,2016-07-01T03:14:00Z,29.6619,-84.3731,1016.366,1111122 
COAPS,ioos:station:COAPS:N7:1,2016-07-01T03:15:00Z,29.6619,-84.3731,1016.361,1111122 
COAPS,ioos:station:COAPS:N7:1,2016-07-01T03:16:00Z,29.6619,-84.3731,1016.351,1111122 
COAPS,ioos:station:COAPS:N7:1,2016-07-01T03:17:00Z,29.6619,-84.3731,1016.332,1111122 
COAPS,ioos:station:COAPS:N7:1,2016-07-01T03:18:00Z,29.6619,-84.3731,1016.309,1111122 
COAPS,ioos:station:COAPS:N7:1,2016-07-01T03:19:00Z,29.6619,-84.3731,1016.335,1111122 
COAPS,ioos:station:COAPS:N7:1,2016-07-01T03:20:00Z,29.6619,-84.3731,1016.311,1111122 
COAPS,ioos:station:COAPS:N7:1,2016-07-01T03:21:00Z,29.6619,-84.3731,1016.326,1111122 
COAPS,ioos:station:COAPS:N7:1,2016-07-01T03:22:00Z,29.6619,-84.3731,1016.338,1111122 
COAPS,ioos:station:COAPS:N7:1,2016-07-01T03:23:00Z,29.6619,-84.3731,1016.351,1111122 
COAPS,ioos:station:COAPS:N7:1,2016-07-01T03:24:00Z,29.6619,-84.3731,1016.365,1111122 
COAPS,ioos:station:COAPS:N7:1,2016-07-01T03:25:00Z,29.6619,-84.3731,1016.376,1111122 
COAPS,ioos:station:COAPS:N7:1,2016-07-01T03:26:00Z,29.6619,-84.3731,1016.368,1111122 
COAPS,ioos:station:COAPS:N7:1,2016-07-01T03:27:00Z,29.6619,-84.3731,1016.399,1111122 
COAPS,ioos:station:COAPS:N7:1,2016-07-01T03:28:00Z,29.6619,-84.3731,1016.381,1111122 
COAPS,ioos:station:COAPS:N7:1,2016-07-01T03:29:00Z,29.6619,-84.3731,1016.408,1111122 
COAPS,ioos:station:COAPS:N7:1,2016-07-01T03:30:00Z,29.6619,-84.3731,1016.403,1111122 
COAPS,ioos:station:COAPS:N7:1,2016-07-01T03:31:00Z,29.6619,-84.3731,1016.439,1111122 
COAPS,ioos:station:COAPS:N7:1,2016-07-01T03:32:00Z,29.6619,-84.3731,1016.42,1111122 
COAPS,ioos:station:COAPS:N7:1,2016-07-01T03:33:00Z,29.6619,-84.3731,1016.461,1111122 
COAPS,ioos:station:COAPS:N7:1,2016-07-01T03:34:00Z,29.6619,-84.3731,1016.492,1111122 
COAPS,ioos:station:COAPS:N7:1,2016-07-01T03:35:00Z,29.6619,-84.3731,1016.464,1111122 
COAPS,ioos:station:COAPS:N7:1,2016-07-01T03:36:00Z,29.6619,-84.3731,1016.452,1111122 
COAPS,ioos:station:COAPS:N7:1,2016-07-01T03:37:00Z,29.6619,-84.3731,1016.386,1111122 
COAPS,ioos:station:COAPS:N7:1,2016-07-01T03:38:00Z,29.6619,-84.3731,1016.375,1111122 
COAPS,ioos:station:COAPS:N7:1,2016-07-01T03:39:00Z,29.6619,-84.3731,1016.357,1111122 
COAPS,ioos:station:COAPS:N7:1,2016-07-01T03:40:00Z,29.6619,-84.3731,1016.343,1111122 
COAPS,ioos:station:COAPS:N7:1,2016-07-01T03:41:00Z,29.6619,-84.3731,1016.387,1111122 
COAPS,ioos:station:COAPS:N7:1,2016-07-01T03:42:00Z,29.6619,-84.3731,1016.385,1111122 
COAPS,ioos:station:COAPS:N7:1,2016-07-01T03:43:00Z,29.6619,-84.3731,1016.381,1111122 
COAPS,ioos:station:COAPS:N7:1,2016-07-01T03:44:00Z,29.6619,-84.3731,1016.386,1111122 
COAPS,ioos:station:COAPS:N7:1,2016-07-01T03:45:00Z,29.6619,-84.3731,1016.359,1111122 
COAPS,ioos:station:COAPS:N7:1,2016-07-01T03:46:00Z,29.6619,-84.3731,1016.328,1111122 
COAPS,ioos:station:COAPS:N7:1,2016-07-01T03:47:00Z,29.6619,-84.3731,1016.327,1111122 
COAPS,ioos:station:COAPS:N7:1,2016-07-01T03:48:00Z,29.6619,-84.3731,1016.28,1111122 
COAPS,ioos:station:COAPS:N7:1,2016-07-01T03:49:00Z,29.6619,-84.3731,1016.277,1111122 
COAPS,ioos:station:COAPS:N7:1,2016-07-01T03:50:00Z,29.6619,-84.3731,1016.278,1111122 
COAPS,ioos:station:COAPS:N7:1,2016-07-01T03:51:00Z,29.6619,-84.3731,1016.255,1111122 
COAPS,ioos:station:COAPS:N7:1,2016-07-01T03:52:00Z,29.6619,-84.3731,1016.252,1111122 
COAPS,ioos:station:COAPS:N7:1,2016-07-01T03:53:00Z,29.6619,-84.3731,1016.159,1111122 
COAPS,ioos:station:COAPS:N7:1,2016-07-01T03:54:00Z,29.6619,-84.3731,1016.27,1111122 
COAPS,ioos:station:COAPS:N7:1,2016-07-01T03:55:00Z,29.6619,-84.3731,1016.27,1111122 
COAPS,ioos:station:COAPS:N7:1,2016-07-01T03:56:00Z,29.6619,-84.3731,1016.295,1111122 
COAPS,ioos:station:COAPS:N7:1,2016-07-01T03:57:00Z,29.6619,-84.3731,1016.273,1111122 
COAPS,ioos:station:COAPS:N7:1,2016-07-01T03:58:00Z,29.6619,-84.3731,1016.29,1111122 
COAPS,ioos:station:COAPS:N7:1,2016-07-01T03:59:00Z,29.6619,-84.3731,1016.241,1111122 
COAPS,ioos:station:COAPS:N7:1,2016-07-01T04:00:00Z,29.6619,-84.3731,1016.266,1111122 
COAPS,ioos:station:COAPS:N7:1,2016-07-01T04:01:00Z,29.6619,-84.3731,1016.23,1111122 
COAPS,ioos:station:COAPS:N7:1,2016-07-01T04:02:00Z,29.6619,-84.3731,1016.236,1111122 
COAPS,ioos:station:COAPS:N7:1,2016-07-01T04:03:00Z,29.6619,-84.3731,1016.197,1111122 
COAPS,ioos:station:COAPS:N7:1,2016-07-01T04:04:00Z,29.6619,-84.3731,1016.193,1111122 
COAPS,ioos:station:COAPS:N7:1,2016-07-01T04:05:00Z,29.6619,-84.3731,1016.164,1111122 
COAPS,ioos:station:COAPS:N7:1,2016-07-01T04:06:00Z,29.6619,-84.3731,1016.147,1111122 
COAPS,ioos:station:COAPS:N7:1,2016-07-01T04:07:00Z,29.6619,-84.3731,1016.112,1111122 
COAPS,ioos:station:COAPS:N7:1,2016-07-01T04:08:00Z,29.6619,-84.3731,1016.095,1111122 
COAPS,ioos:station:COAPS:N7:1,2016-07-01T04:09:00Z,29.6619,-84.3731,1016.098,1111122 
COAPS,ioos:station:COAPS:N7:1,2016-07-01T04:10:00Z,29.6619,-84.3731,1016.102,1111122 
COAPS,ioos:station:COAPS:N7:1,2016-07-01T04:11:00Z,29.6619,-84.3731,1016.108,1111122 
COAPS,ioos:station:COAPS:N7:1,2016-07-01T04:12:00Z,29.6619,-84.3731,1016.086,1111122 
COAPS,ioos:station:COAPS:N7:1,2016-07-01T04:13:00Z,29.6619,-84.3731,1016.033,1111122 
COAPS,ioos:station:COAPS:N7:1,2016-07-01T04:14:00Z,29.6619,-84.3731,1016.032,1111122 
COAPS,ioos:station:COAPS:N7:1,2016-07-01T04:15:00Z,29.6619,-84.3731,1016.043,1111122 
COAPS,ioos:station:COAPS:N7:1,2016-07-01T04:16:00Z,29.6619,-84.3731,1016.02,1111122 
COAPS,ioos:station:COAPS:N7:1,2016-07-01T04:17:00Z,29.6619,-84.3731,1016.016,1111122 
COAPS,ioos:station:COAPS:N7:1,2016-07-01T04:18:00Z,29.6619,-84.3731,1016.013,1111122 
COAPS,ioos:station:COAPS:N7:1,2016-07-01T04:19:00Z,29.6619,-84.3731,1015.995,1111122 
COAPS,ioos:station:COAPS:N7:1,2016-07-01T04:20:00Z,29.6619,-84.3731,1016.014,1111122 
COAPS,ioos:station:COAPS:N7:1,2016-07-01T04:21:00Z,29.6619,-84.3731,1015.998,1111122 
COAPS,ioos:station:COAPS:N7:1,2016-07-01T04:22:00Z,29.6619,-84.3731,1015.98,1111122 
COAPS,ioos:station:COAPS:N7:1,2016-07-01T04:23:00Z,29.6619,-84.3731,1015.959,1111122 
COAPS,ioos:station:COAPS:N7:1,2016-07-01T04:24:00Z,29.6619,-84.3731,1015.904,1111122 
COAPS,ioos:station:COAPS:N7:1,2016-07-01T04:25:00Z,29.6619,-84.3731,1015.897,1111122 
COAPS,ioos:station:COAPS:N7:1,2016-07-01T04:26:00Z,29.6619,-84.3731,1015.867,1111122 
COAPS,ioos:station:COAPS:N7:1,2016-07-01T04:27:00Z,29.6619,-84.3731,1015.873,1111122 
COAPS,ioos:station:COAPS:N7:1,2016-07-01T04:28:00Z,29.6619,-84.3731,1015.814,1111122 
COAPS,ioos:station:COAPS:N7:1,2016-07-01T04:29:00Z,29.6619,-84.3731,1015.784,1111122 
COAPS,ioos:station:COAPS:N7:1,2016-07-01T04:30:00Z,29.6619,-84.3731,1015.766,1111122 
COAPS,ioos:station:COAPS:N7:1,2016-07-01T04:31:00Z,29.6619,-84.3731,1015.736,1111122 
COAPS,ioos:station:COAPS:N7:1,2016-07-01T04:32:00Z,29.6619,-84.3731,1015.731,1111122 
COAPS,ioos:station:COAPS:N7:1,2016-07-01T04:33:00Z,29.6619,-84.3731,1015.726,1111122 
COAPS,ioos:station:COAPS:N7:1,2016-07-01T04:34:00Z,29.6619,-84.3731,1015.766,1111122 
COAPS,ioos:station:COAPS:N7:1,2016-07-01T04:35:00Z,29.6619,-84.3731,1015.736,1111122 
COAPS,ioos:station:COAPS:N7:1,2016-07-01T04:36:00Z,29.6619,-84.3731,1015.761,1111122 
COAPS,ioos:station:COAPS:N7:1,2016-07-01T04:37:00Z,29.6619,-84.3731,1015.738,1111122 